Погода в Крутогорье

Россия / Липецкая область     52°25′05″N   39°26′43″E
темп.,
°C
ветер,
м/с
пор.,
м/с
влажн.,
%
обл.,
%
осадки,
мм/ч
давл.,
гПа
погр.,
м
21 апреля, ср
ср2100:00+4св3796100 2.6 1003453
03:00+5в1198100 8.5 1002100
06:00+5з2598100 8.3 1003263
09:00+4зсз3595100 10.1 1006368
12:00+6з4688100 0.1 1009612
15:00+8зюз5878100 0.1 1011984
18:00+8ююз3785100 0.1 1013304
21:00+7ю249392 0.1 1014112
22 апреля, чт
чт2200:00+5ююз5109025 0.1 1015291
03:00+5юз499194 0.2 1017622
06:00+5юз379087 0.0 1018371
09:00+7зюз457210 0.0 1020783
12:00+11юз465824 0.0 10201379
15:00+13юз3658100 0.1 10201251
18:00+12ю376663 0.1 1020300
21:00+9ю377969 0.1 1020127
23 апреля, пт
пт2300:00+8ю388979 0.1 1020160
03:00+8ю388794 0.1 1020134
06:00+7ю378830 0.0 1020133
09:00+13ю476682 0.0 1020391
12:00+17ююз5743100 0.3 10192411
15:00+15ююв465683 0.3 1018900
18:00+13ююв696761 0.9 1017463
21:00+10ююв411865 1.1 1017299
24 апреля, сб
сб2400:00+9ююв513885 0.3 1015299
03:00+8ююв5129019 0.3 1013324
06:00+8ююв499375 0.1 1012266
09:00+9ю4990100 1.1 1010659
12:00+5зсз5987100 5.3 1013674
15:00+8з476491 5.4 10131481
18:00+9зюз596532 0.4 10131128
21:00+5зюз49783 0.4 1014218
25 апреля, вс
вс2500:00+4зюз4984100 0.0 1014247
03:00+3юз388914 0.0 1015231
06:00+2зюз379164 0.0 1015211
09:00+6з566771 0.3 1016970
12:00+8зюз5753100 0.6 10161888
15:00+10зюз6846100 1.0 10162281
18:00+9зюз45535 0.0 10171129
21:00+6ююз22615 0.0 101813